Wise, VA

2:06 AM EDT on July 26, 2017 (GMT -0400)
Lonesome Pine

Weather History for KLNP - January, 2014

Change the Weather History Date:

Monday, January 6, 2014

  Actual Average Record
Temperature  
Mean Temperature 21 °F -  
Max Temperature 46 °F 40 °F 62 °F (1998)
Min Temperature -4 °F 25 °F -4 °F (2014)
Degree Days  
Heating Degree Days 44    
Moisture  
Dew Point 10 °F    
Average Humidity 85    
Maximum Humidity 100    
Minimum Humidity 61    
Precipitation  
Precipitation 0.16 in - - ()
Sea Level Pressure  
Sea Level Pressure 29.92 in    
Wind  
Wind Speed 13 mph (WNW)    
Max Wind Speed 18 mph    
Max Gust Speed 28 mph    
Visibility 5 miles    
Events Rain , Snow    
Averages and records for this station are not official NWS values.
T = Trace of Precipitation, MM = Missing Value Source: NWS Daily Summary

Daily Weather History Graph

Daily Weather History Graph

Search for Another Location

Airport or City:

Trip Planner

Search our weather history database for the weather conditions in past years. The results will help you decide how hot, cold, wet, or windy it might be!

Date:

Astronomy

Jan. 06, 2014 Rise Set
Actual Time 7:43 AM EST 5:28 PM EST
Civil Twilight 7:15 AM EST 5:57 PM EST
Nautical Twilight 6:42 AM EST 6:29 PM EST
Astronomical Twilight 6:11 AM EST 7:00 PM EST
Moon 11:07 AM EST (1/6) 11:50 PM EST (1/6)
Length of Visible Light 10h 42m
Length of Day
9h 44m
Waxing Crescent, 34% of the Moon is Illuminated
Jan 6
Waxing Crescent
Jan 7
First Quarter
Jan 15
Full
Jan 24
Last Quarter
Jan 30
New

Hourly Weather History & Observations

Time (EST) Temp. Windchill Dew Point Humidity Pressure Visibility Wind Dir Wind Speed Gust Speed Precip Events Conditions
12:15 AM 46.4 °F 40.1 °F 46.4 °F 100% 29.58 in 5.0 mi WSW 15.0 mph 19.6 mph 0.06 in Rain Rain
12:35 AM 42.8 °F 34.5 °F 42.8 °F 100% 29.61 in 4.0 mi West 18.4 mph 27.6 mph 0.09 in Rain Light Rain
12:55 AM 41.0 °F 33.1 °F 41.0 °F 100% 29.64 in 5.0 mi West 15.0 mph 27.6 mph 0.11 in Rain Light Rain
1:15 AM 35.6 °F 25.5 °F 35.6 °F 100% 29.66 in 4.0 mi West 17.3 mph 25.3 mph 0.02 in Rain Light Rain
1:35 AM 33.8 °F 26.4 °F 33.8 °F 100% 29.66 in 3.0 mi WNW 9.2 mph - 0.03 in Snow Light Snow
1:55 AM 33.8 °F 25.8 °F 33.8 °F 100% 29.69 in 2.0 mi West 10.4 mph 23.0 mph 0.03 in Snow Light Snow
2:15 AM 32.0 °F 24.2 °F 32.0 °F 100% 29.70 in 1.2 mi WNW 9.2 mph 16.1 mph N/A Snow Light Snow
2:35 AM 32.0 °F 25.6 °F 32.0 °F 100% 29.73 in 1.0 mi WNW 6.9 mph - 0.01 in Snow Light Snow
2:55 AM 32.0 °F 25.6 °F 32.0 °F 100% 29.74 in 1.0 mi WNW 6.9 mph - 0.02 in Snow Snow
3:15 AM 30.2 °F 21.9 °F 30.2 °F 100% 29.75 in 1.5 mi NW 9.2 mph - N/A Snow Light Snow
3:35 AM 30.2 °F 18.9 °F 30.2 °F 100% 29.76 in 2.0 mi WNW 16.1 mph 19.6 mph N/A Snow Light Snow
3:55 AM 28.4 °F 18.0 °F 28.4 °F 100% 29.77 in 10.0 mi WNW 12.7 mph - N/A Snow Light Snow
4:15 AM 28.4 °F 19.7 °F 28.4 °F 100% 29.78 in 7.0 mi WNW 9.2 mph - N/A   Overcast
4:35 AM 28.4 °F 20.4 °F 28.4 °F 100% 29.78 in 10.0 mi WNW 8.1 mph 17.3 mph N/A   Overcast
4:55 AM 26.6 °F 14.7 °F 26.6 °F 100% 29.80 in 5.0 mi West 15.0 mph - N/A   Overcast
5:15 AM 24.8 °F 12.9 °F 24.8 °F 100% 29.81 in 10.0 mi WNW 13.8 mph 23.0 mph N/A   Overcast
5:35 AM 23.0 °F 12.4 °F 23.0 °F 100% 29.81 in 7.0 mi West 10.4 mph 20.7 mph N/A   Overcast
5:55 AM 23.0 °F 10.6 °F 23.0 °F 100% 29.82 in 1.8 mi West 13.8 mph 24.2 mph N/A Snow Light Snow
6:15 AM 21.2 °F 7.8 °F 21.2 °F 100% 29.83 in 2.0 mi West 15.0 mph 21.9 mph N/A Snow Light Snow
6:35 AM 21.2 °F 8.9 °F 21.2 °F 100% 29.84 in 1.5 mi WNW 12.7 mph 16.1 mph N/A Snow Light Snow
6:55 AM 21.2 °F 7.8 °F 21.2 °F 100% 29.85 in 1.2 mi West 15.0 mph 18.4 mph N/A Snow Light Snow
7:15 AM 19.4 °F 6.6 °F 17.6 °F 93% 29.86 in 3.0 mi West 12.7 mph 24.2 mph N/A Snow Light Snow
7:35 AM 19.4 °F 8.6 °F 19.4 °F 100% 29.88 in 0.5 mi West 9.2 mph 19.6 mph N/A Snow Light Snow
7:55 AM 17.6 °F 3.7 °F 17.6 °F 100% 29.88 in 2.5 mi WNW 13.8 mph 20.7 mph N/A Snow Light Snow
8:15 AM 17.6 °F 8.2 °F 17.6 °F 100% 29.88 in 0.2 mi WNW 6.9 mph - N/A Snow Light Snow
8:35 AM 17.6 °F 5.0 °F 17.6 °F 100% 29.90 in 1.8 mi WNW 11.5 mph 17.3 mph N/A Snow Light Snow
8:55 AM 17.6 °F 6.4 °F 17.6 °F 100% 29.90 in 0.8 mi WNW 9.2 mph - N/A Snow Light Snow
9:15 AM 17.6 °F 8.2 °F 17.6 °F 100% 29.90 in 0.8 mi WNW 6.9 mph - N/A Snow Light Snow
9:35 AM 17.6 °F 6.4 °F 17.6 °F 100% 29.91 in 1.2 mi WNW 9.2 mph 16.1 mph N/A Snow Light Snow
9:55 AM 17.6 °F 5.0 °F 15.8 °F 93% 29.92 in 1.8 mi WNW 11.5 mph 16.1 mph N/A Snow Light Snow
10:15 AM 15.8 °F 1.4 °F 12.2 °F 86% 29.93 in 2.0 mi WNW 13.8 mph 18.4 mph N/A Snow Light Snow
10:35 AM 15.8 °F 2.7 °F 10.4 °F 79% 29.93 in 4.0 mi WNW 11.5 mph - N/A Snow Light Snow
10:55 AM 15.8 °F 4.2 °F 12.2 °F 86% 29.93 in 2.5 mi WNW 9.2 mph - N/A Snow Light Snow
11:15 AM 15.8 °F 3.4 °F 12.2 °F 86% 29.92 in 0.5 mi WSW 10.4 mph - N/A Snow Light Snow
11:35 AM 14.0 °F 0.5 °F 10.4 °F 86% 29.91 in 7.0 mi WSW 11.5 mph 21.9 mph N/A Snow Light Snow
11:55 AM 14.0 °F 0.5 °F 10.4 °F 86% 29.90 in 2.0 mi WNW 11.5 mph 17.3 mph N/A Snow Light Snow
12:15 PM 14.0 °F 1.2 °F 10.4 °F 86% 29.89 in 3.0 mi WNW 10.4 mph 17.3 mph N/A Snow Light Snow
12:35 PM 14.0 °F -0.8 °F 8.6 °F 79% 29.89 in 5.0 mi WNW 13.8 mph 20.7 mph N/A   Haze
12:55 PM 12.2 °F -2.5 °F 6.8 °F 79% 29.90 in 4.0 mi WNW 12.7 mph 20.7 mph N/A   Haze
1:15 PM 12.2 °F -1.0 °F 6.8 °F 79% 29.91 in 2.0 mi West 10.4 mph 16.1 mph N/A   Haze
1:35 PM 10.4 °F -6.6 °F 5.0 °F 79% 29.92 in 2.5 mi WNW 16.1 mph 19.6 mph N/A   Haze
1:55 PM 8.6 °F -10.0 °F 3.2 °F 79% 29.93 in 2.0 mi WNW 18.4 mph 26.5 mph N/A   Haze
2:15 PM 8.6 °F -7.0 °F -0.4 °F 67% 29.94 in 10.0 mi WNW 12.7 mph 18.4 mph N/A   Overcast
2:35 PM 10.4 °F -6.0 °F -0.4 °F 62% 29.95 in 4.0 mi WNW 15.0 mph 24.2 mph N/A   Haze
2:55 PM 8.6 °F -6.3 °F -0.4 °F 67% 29.96 in 7.0 mi WNW 11.5 mph 19.6 mph N/A   Mostly Cloudy
3:15 PM 5.0 °F -10.0 °F -0.4 °F 78% 29.98 in 2.5 mi West 10.4 mph 19.6 mph N/A Snow Light Snow
3:35 PM 5.0 °F -10.0 °F -2.2 °F 72% 29.99 in 7.0 mi WNW 10.4 mph 18.4 mph N/A   Overcast
3:55 PM 5.0 °F -12.3 °F -4.0 °F 66% 30.00 in 10.0 mi WNW 13.8 mph 19.6 mph N/A   Mostly Cloudy
4:15 PM 5.0 °F -11.6 °F -5.8 °F 61% 30.00 in 5.0 mi WNW 12.7 mph 20.7 mph N/A   Haze
4:35 PM 3.2 °F -13.1 °F -5.8 °F 66% 30.01 in 10.0 mi West 11.5 mph 19.6 mph N/A   Scattered Clouds
4:55 PM 3.2 °F -15.3 °F -5.8 °F 66% 30.02 in 10.0 mi WNW 15.0 mph 26.5 mph N/A   Mostly Cloudy
5:10 PM 3.2 °F -12.2 °F -4.0 °F 72% 30.03 in 4.0 mi WNW 10.4 mph 17.3 mph N/A   Haze
5:35 PM 1.4 °F -16.1 °F -5.8 °F 72% 30.03 in 10.0 mi West 12.7 mph 18.4 mph N/A   Overcast
5:50 PM 1.4 °F -12.5 °F -5.8 °F 72% 30.03 in 10.0 mi West 8.1 mph - N/A   Overcast
6:15 PM 1.4 °F -16.1 °F -5.8 °F 72% 30.04 in 7.0 mi West 12.7 mph 17.3 mph N/A   Mostly Cloudy
6:35 PM 1.4 °F -12.5 °F -7.6 °F 66% 30.06 in 10.0 mi West 8.1 mph 20.7 mph N/A   Mostly Cloudy
6:55 PM -0.4 °F -14.7 °F -7.6 °F 72% 30.07 in 10.0 mi WNW 8.1 mph 23.0 mph N/A   Mostly Cloudy
7:15 PM -0.4 °F -17.6 °F -7.6 °F 72% 30.08 in 10.0 mi West 11.5 mph 23.0 mph N/A   Scattered Clouds
7:35 PM -0.4 °F -17.6 °F -9.4 °F 66% 30.09 in 10.0 mi WNW 11.5 mph 19.6 mph N/A   Scattered Clouds
7:55 PM -0.4 °F -18.4 °F -9.4 °F 66% 30.09 in 10.0 mi West 12.7 mph 17.3 mph N/A   Scattered Clouds
8:15 PM -0.4 °F -17.6 °F -7.6 °F 72% 30.10 in 10.0 mi West 11.5 mph 21.9 mph N/A   Mostly Cloudy
8:35 PM -2.2 °F -23.5 °F -9.4 °F 71% 30.11 in 10.0 mi West 17.3 mph - N/A   Overcast
8:55 PM -2.2 °F -21.5 °F -9.4 °F 71% 30.12 in 10.0 mi West 13.8 mph 25.3 mph N/A   Overcast
9:15 PM -2.2 °F -19.9 °F -9.4 °F 71% 30.13 in 10.0 mi WNW 11.5 mph 17.3 mph N/A   Overcast
9:35 PM -2.2 °F -20.7 °F -9.4 °F 71% 30.14 in 7.0 mi West 12.7 mph 16.1 mph N/A   Overcast
9:55 PM -2.2 °F -21.5 °F -7.6 °F 78% 30.14 in 4.0 mi WSW 13.8 mph - N/A   Haze
10:15 PM -2.2 °F -18.0 °F -7.6 °F 78% 30.14 in 4.0 mi West 9.2 mph - N/A   Haze
10:35 PM -2.2 °F -21.5 °F -7.6 °F 78% 30.14 in 4.0 mi West 13.8 mph 18.4 mph N/A   Haze
10:55 PM -4.0 °F -20.2 °F -7.6 °F 85% 30.14 in 4.0 mi West 9.2 mph 19.6 mph N/A   Haze
11:15 PM -4.0 °F -23.0 °F -7.6 °F 85% 30.14 in 4.0 mi West 12.7 mph 16.1 mph N/A   Haze
11:35 PM -4.0 °F -24.5 °F -7.6 °F 85% 30.14 in 4.0 mi West 15.0 mph 20.7 mph N/A   Haze
11:55 PM -4.0 °F -25.8 °F -9.4 °F 78% 30.14 in 5.0 mi West 17.3 mph 24.2 mph N/A   Haze